| time (UTC) | temp C | wind direction | speed KPH | gust KPH | rain 1hr cm | rain 24hr cm | rain mn cm | humidity % | barometer mb |
| 20260506163008 | 13 | 70 | 1.6 | 6.4 | 0.03 | 0.13 | 0.03 | 86 | 1014.3 |
| 20260506161507 | 12 | 106 | 1.6 | 9.7 | 0.03 | 0.13 | 0.03 | 87 | 1013.6 |
| 20260506160013 | 12 | 41 | 1.6 | 8.0 | 0.03 | 0.13 | 0.03 | 86 | 1014.8 |
| 20260506154505 | 12 | 117 | 1.6 | 8.0 | 0.00 | 0.10 | 0.00 | 84 | 1015.0 |
| 20260506153004 | 12 | 258 | 0.0 | 3.2 | 0.00 | 0.10 | 0.00 | 82 | 1015.4 |
| 20260506151501 | 12 | 209 | 1.6 | 11.3 | 0.00 | 0.10 | 0.00 | 83 | 1014.6 |
| 20260506150059 | 12 | 333 | 0.0 | 6.4 | 0.00 | 0.10 | 0.00 | 83 | 1014.3 |
| 20260506144558 | 12 | 131 | 1.6 | 4.8 | 0.00 | 0.10 | 0.00 | 83 | 1014.4 |
| 20260506143056 | 12 | 141 | 0.0 | 8.0 | 0.00 | 0.10 | 0.00 | 84 | 1014.0 |
| 20260506141607 | 12 | 141 | 0.0 | 4.8 | 0.00 | 0.10 | 0.00 | 85 | 1013.9 |
| 20260506140050 | 12 | 118 | 0.0 | 6.4 | 0.00 | 0.10 | 0.00 | 84 | 1013.4 |
| 20260506134547 | 12 | 101 | 1.6 | 8.0 | 0.00 | 0.10 | 0.00 | 84 | 1013.5 |
| 20260506133045 | 12 | 134 | 1.6 | 8.0 | 0.00 | 0.10 | 0.00 | 84 | 1013.0 |
| 20260506131544 | 12 | 46 | 1.6 | 8.0 | 0.00 | 0.10 | 0.00 | 84 | 1013.1 |
| 20260506130042 | 12 | 94 | 3.2 | 8.0 | 0.00 | 0.10 | 0.00 | 84 | 1013.1 |
| 20260506124541 | 12 | 68 | 1.6 | 12.9 | 0.00 | 0.10 | 0.00 | 84 | 1012.8 |
| 20260506123042 | 12 | 91 | 3.2 | 8.0 | 0.00 | 0.10 | 0.00 | 83 | 1012.3 |
| 20260506121534 | 12 | 28 | 0.0 | 6.4 | 0.00 | 0.10 | 0.00 | 82 | 1012.7 |
| 20260506120055 | 12 | 113 | 1.6 | 8.0 | 0.00 | 0.10 | 0.00 | 81 | 1012.3 |
| 20260506114530 | 12 | 31 | 1.6 | 9.7 | 0.00 | 0.10 | 0.00 | 81 | 1011.7 |
| 20260506113029 | 12 | 91 | 3.2 | 8.0 | 0.00 | 0.10 | 0.00 | 80 | 1011.8 |
| 20260506111526 | 13 | 229 | 0.0 | 6.4 | 0.00 | 0.10 | 0.00 | 80 | 1011.4 |
| 20260506110025 | 13 | 166 | 0.0 | 8.0 | 0.00 | 0.10 | 0.00 | 79 | 1011.2 |
| 20260506104520 | 13 | 81 | 1.6 | 6.4 | 0.00 | 0.10 | 0.00 | 78 | 1010.8 |
| 20260506103027 | 13 | 120 | 1.6 | 6.4 | 0.00 | 0.10 | 0.00 | 78 | 1010.7 |
| 20260506101518 | 13 | 91 | 3.2 | 9.7 | 0.00 | 0.10 | 0.00 | 77 | 1010.4 |
| 20260506100014 | 13 | 6 | 1.6 | 6.4 | 0.00 | 0.10 | 0.00 | 77 | 1010.4 |
| 20260506094526 | 13 | 94 | 0.0 | 3.2 | 0.00 | 0.10 | 0.00 | 77 | 1010.3 |
| 20260506093016 | 13 | 20 | 1.6 | 6.4 | 0.00 | 0.10 | 0.00 | 76 | 1010.3 |
| 20260506091509 | 14 | 105 | 1.6 | 6.4 | 0.00 | 0.10 | 0.00 | 77 | 1010.0 |
| 20260506090006 | 14 | 91 | 1.6 | 6.4 | 0.00 | 0.10 | 0.00 | 77 | 1009.8 |
| 20260506084506 | 14 | 94 | 0.0 | 4.8 | 0.00 | 0.10 | 0.00 | 78 | 1009.8 |
| 20260506083004 | 14 | 75 | 0.0 | 6.4 | 0.00 | 0.10 | 0.00 | 78 | 1009.3 |
| 20260506081505 | 14 | 320 | 0.0 | 6.4 | 0.00 | 0.10 | 0.00 | 78 | 1009.6 |
| 20260506073104 | 15 | 86 | 1.6 | 6.4 | 0.00 | 0.10 | 0.00 | 77 | 1009.8 |
| 20260506071558 | 15 | 115 | 1.6 | 4.8 | 0.00 | 0.10 | 0.00 | 78 | 1009.7 |
| 20260506070115 | 15 | 30 | 0.0 | 6.4 | 0.00 | 0.10 | 0.00 | 78 | 1009.7 |
| 20260506061550 | 16 | 38 | 1.6 | 9.7 | 0.00 | 0.10 | 0.00 | 78 | 1009.4 |
| 20260506044549 | 18 | 93 | 1.6 | 6.4 | 0.00 | 0.10 | 0.10 | 80 | 1008.8 |
| 20260506043029 | 18 | 98 | 3.2 | 8.0 | 0.00 | 0.10 | 0.10 | 79 | 1008.7 |
| 20260506041526 | 19 | 182 | 3.2 | 8.0 | 0.00 | 0.10 | 0.10 | 79 | 1008.3 |
| 20260506040022 | 20 | 109 | 1.6 | 6.4 | 0.00 | 0.10 | 0.10 | 79 | 1008.4 |
| 20260506034519 | 20 | 304 | 0.0 | 4.8 | 0.00 | 0.10 | 0.10 | 80 | 1008.0 |
| 20260506033015 | 21 | 128 | 0.0 | 3.2 | 0.00 | 0.10 | 0.10 | 80 | 1007.8 |
| 20260506031517 | 21 | 307 | 1.6 | 6.4 | 0.00 | 0.10 | 0.10 | 79 | 1007.8 |
| 20260506030012 | 21 | 42 | 0.0 | 8.0 | 0.00 | 0.10 | 0.10 | 79 | 1007.4 |
| 20260506024509 | 22 | 79 | 3.2 | 12.9 | 0.00 | 0.10 | 0.10 | 78 | 1006.8 |
| 20260506023007 | 22 | 103 | 0.0 | 3.2 | 0.00 | 0.10 | 0.10 | 81 | 1005.9 |
| 20260506021507 | 23 | 1 | 0.0 | 3.2 | 0.00 | 0.10 | 0.10 | 80 | 1006.2 |
| 20260506020005 | 23 | 84 | 0.0 | 3.2 | 0.00 | 0.10 | 0.10 | 80 | 1005.9 |
| 20260506014510 | 23 | 49 | 0.0 | 1.6 | 0.00 | 0.10 | 0.10 | 80 | 1005.6 |
| 20260506013005 | 25 | 23 | 1.6 | 9.7 | 0.08 | 0.10 | 0.10 | 82 | 1005.7 |
| 20260506011504 | 25 | 240 | 0.0 | 3.2 | 0.10 | 0.10 | 0.10 | 86 | 1004.9 |
| 20260506010003 | 25 | 122 | 0.0 | 3.2 | 0.10 | 0.10 | 0.10 | 86 | 1004.7 |
| 20260506004503 | 26 | 240 | 0.0 | 6.4 | 0.10 | 0.10 | 0.10 | 84 | 1004.9 |
| 20260506003003 | 26 | 204 | 0.0 | 11.3 | 0.03 | 0.03 | 0.03 | 81 | 1004.7 |
| 20260506001502 | 27 | 215 | 1.6 | 12.9 | 0.00 | 0.00 | 0.00 | 77 | 1004.4 |
| 20260506000002 | 27 | 226 | 4.8 | 9.7 | 0.00 | 0.00 | 0.00 | 74 | 1003.7 |
| 20260505234502 | 28 | 175 | 3.2 | 8.0 | 0.00 | 0.00 | 0.00 | 74 | 1003.7 |
| 20260505233101 | 28 | 244 | 4.8 | 17.7 | 0.00 | 0.00 | 0.00 | 72 | 1003.7 |
| 20260505233001 | 28 | 123 | 4.8 | 17.7 | 0.00 | 0.00 | 0.00 | 72 | 1003.7 |
| 20260505231601 | 29 | 181 | 3.2 | 9.7 | 0.00 | 0.00 | 0.00 | 71 | 1003.7 |
| 20260505230058 | 30 | 224 | 1.6 | 19.3 | 0.00 | 0.00 | 0.00 | 69 | 1003.5 |
| 20260505224558 | 30 | 112 | 4.8 | 20.9 | 0.00 | 0.00 | 0.00 | 68 | 1003.7 |
| 20260505223156 | 30 | 44 | 4.8 | 14.5 | 0.00 | 0.00 | 0.00 | 67 | 1003.3 |
| 20260505221608 | 31 | 288 | 3.2 | 9.7 | 0.00 | 0.00 | 0.00 | 66 | 1003.5 |
| 20260505220137 | 31 | 148 | 3.2 | 12.9 | 0.00 | 0.00 | 0.00 | 66 | 1003.4 |
| 20260505214614 | 31 | 91 | 4.8 | 12.9 | 0.00 | 0.00 | 0.00 | 66 | 1003.7 |
| 20260505213051 | 31 | 233 | 6.4 | 16.1 | 0.00 | 0.00 | 0.00 | 66 | 1003.7 |
| 20260505211606 | 31 | 98 | 4.8 | 20.9 | 0.00 | 0.00 | 0.00 | 66 | 1003.7 |
| 20260505210047 | 31 | 241 | 6.4 | 17.7 | 0.00 | 0.00 | 0.00 | 66 | 1003.8 |
| 20260505204546 | 30 | 248 | 6.4 | 17.7 | 0.00 | 0.00 | 0.00 | 66 | 1004.2 |
| 20260505203046 | 30 | 269 | 3.2 | 20.9 | 0.00 | 0.00 | 0.00 | 68 | 1004.2 |
| 20260505201543 | 29 | 262 | 4.8 | 20.9 | 0.00 | 0.00 | 0.00 | 68 | 1004.3 |
| 20260505200046 | 30 | 252 | 6.4 | 14.5 | 0.00 | 0.00 | 0.00 | 68 | 1004.4 |
| 20260505194539 | 29 | 243 | 8.0 | 19.3 | 0.00 | 0.00 | 0.00 | 70 | 1004.6 |
| 20260505193037 | 28 | 101 | 6.4 | 24.1 | 0.00 | 0.00 | 0.00 | 70 | 1004.5 |
| 20260505191534 | 28 | 186 | 4.8 | 20.9 | 0.00 | 0.00 | 0.00 | 72 | 1004.6 |
| 20260505190034 | 27 | 248 | 9.7 | 20.9 | 0.00 | 0.00 | 0.00 | 71 | 1004.8 |
| 20260505184531 | 27 | 252 | 9.7 | 24.1 | 0.00 | 0.00 | 0.00 | 72 | 1004.9 |
| 20260505183042 | 27 | 263 | 4.8 | 14.5 | 0.00 | 0.00 | 0.00 | 72 | 1004.9 |
| 20260505181530 | 28 | 229 | 8.0 | 20.9 | 0.00 | 0.00 | 0.00 | 71 | 1005.0 |
| 20260505180027 | 27 | 151 | 4.8 | 20.9 | 0.00 | 0.00 | 0.00 | 72 | 1005.1 |
| 20260505174526 | 27 | 247 | 9.7 | 19.3 | 0.00 | 0.00 | 0.00 | 72 | 1005.1 |
| 20260505173025 | 27 | 238 | 9.7 | 22.5 | 0.00 | 0.00 | 0.00 | 73 | 1005.1 |
| 20260505171522 | 27 | 53 | 6.4 | 20.9 | 0.00 | 0.00 | 0.00 | 73 | 1005.5 |
| 20260505170022 | 26 | 300 | 9.7 | 35.4 | 0.00 | 0.00 | 0.00 | 74 | 1005.4 |
| 20260505164519 | 26 | 231 | 8.0 | 24.1 | 0.00 | 0.00 | 0.00 | 74 | 1005.3 |